Simultaneous Nadir Overpasses (SNOs) Predictions

Prediction of SNOs between GOES-16 and TERRA Satellite Orbit:

Table of predicted SNOs for the next 14.0 days since TLE Epoch: 3/2/2019
Index Date Time (GOES-16) GOES-16 Lat,Lon TERRA Lat,Lon Distance(km) Time Diff (sec)
1 03/03/2019 03:17:44 -0.01, -75.19 0.74, -71.59 408.99 80
2 03/03/2019 15:36:20 0.01, -75.21 0.33, -76.76 175.77 80
3 03/05/2019 15:26:55 0.00, -75.22 -0.32, -73.83 159.32 80
4 03/06/2019 03:48:19 -0.00, -75.21 -0.83, -79.02 433.31 80
5 03/07/2019 15:12:09 0.00, -75.24 -0.90, -70.89 494.49 80
6 03/08/2019 03:36:14 -0.00, -75.23 -0.21, -76.09 98.12 80
7 03/10/2019 03:21:31 -0.00, -75.25 0.46, -73.17 237.05 80
8 03/10/2019 15:42:49 0.00, -75.28 0.63, -78.34 347.71 80
9 03/12/2019 15:33:27 0.00, -75.31 0.00, -75.43 13.41 80
10 03/14/2019 15:18:46 0.00, -75.33 -0.61, -72.51 321.09 80
11 03/15/2019 03:42:53 0.00, -75.32 -0.49, -77.71 271.77 80




NCC Satellite Simultaneous Nadir Overpasses (SNOs) Prediction Service
